Regional Weather Roundup
Issued by NWS State College, PA

Home | Current Version | Previous Version | Text Only | Print | Product List | Glossary Off
Versions: 1 2 3 4 5 6 7 8 9 10 11 12 13 14 15 16 17 18 19 20 21 22 23 24 25 26 27 28 29 30 31 32 33 34 35 36 37 38 39 40 41 42 43 44 45 46 47 48 49 50

000
ASUS41 KCTP 290410
RWRCTP

REGIONAL WEATHER ROUNDUP
NATIONAL WEATHER SERVICE STATE COLLEGE PA
1200 AM EDT TUE JUL 29 2014

Note: "fair" indicates few or no clouds below 12,000 feet with no
significant weather and/or obstructions to visibility.

* = STATION THAT DOES NOT REPORT PRECIPITATION /E.G. RAIN...SNOW...ETC/
    THUNDER OR FOG.

PAZ002>004-007>009-013>016-020>023-029>032-290500-
WESTERN PENNSYLVANIA

CITY           SKY/WX    TMP DP  RH WIND       PRES   REMARKS
ERIE           CLOUDY    61  48  63 NW8G17    29.93S
MEADVILLE      PTCLDY    52  46  80 W3        29.94S
FRANKLIN*      CLEAR     48  45  87 W5        29.95S
NEW CASTLE       N/A     55  49  80 N3        29.97S
BEAVER COUNTY  NOT AVBL
BUTLER*        CLEAR     54  46  76 NW3       29.96F
PITTSBURGH INT CLEAR     57  52  83 NW6       29.96S
PITTSBURGH     CLEAR     56  51  84 NW8       29.94F
INDIANA*       MOCLDY    55  52  88 NW6       29.98R
LATROBE        MOCLDY    57  57 100 W8        29.95F
WASHINGTON CO* PTCLDY    55  52  88 CALM      29.96F
$$

PAZ004>006-010>012-017>019-024>028-033>037-041-042-045-046-049>053-290500-
CENTRAL PENNSYLVANIA

CITY           SKY/WX    TMP DP  RH WIND       PRES   REMARKS
BRADFORD       CLOUDY    55  51  86 N5        29.90S
DUBOIS         CLOUDY    55  52  89 W8        29.91S
CLEARFIELD     CLOUDY    58  54  86 NW10      29.90S
JOHNSTOWN      MOCLDY    53  50  89 NW10      29.93S
ALTOONA        CLOUDY    60  56  86 NW12      29.91R
STATE COLLEGE  CLOUDY    61  55  80 NW5       29.88S
WILLIAMSPORT   MOCLDY    63  53  70 W8        29.83R
SELINSGROVE    MOCLDY    63  55  75 NW5       29.85R
FT INDIANTOWN  MOCLDY    65  58  78 W6        29.82S
CAPITAL CITY   MOCLDY    64  58  80 W6        29.82S
HARRISBURG     MOCLDY    66  58  75 NW9       29.81S
YORK           MOCLDY    63  59  87 CALM      29.83S
$$

PAZ038>040-043-044-047-048-054-055-060>062-067>071-290500-
EASTERN PENNSYLVANIA

CITY           SKY/WX    TMP DP  RH WIND       PRES   REMARKS
SCRANTON       CLOUDY    62  54  74 NW9       29.82R
MOUNT POCONO   CLOUDY    57  53  86 NW15G26   29.79F
ALLENTOWN      PTCLDY    65  55  70 NW6       29.78R
QUAKERTOWN*    MOCLDY    64  59  82 NW3       29.79S
READING        MOCLDY    64  57  78 NW7       29.80R
LANCASTER      MOCLDY    64  62  93 NW6       29.81R
COATESVILLE    PTCLDY    63  63 100 NW9       29.81R
POTTSTOWN      PTCLDY    65  57  75 NW10      29.79S
BLUE BELL      PTCLDY    68  59  73 CALM      29.76S
DOYLESTOWN     PTCLDY    64  57  78 NW7       29.76S
WILLOW GROVE   NOT AVBL
NORTH PHILA    MOCLDY    69  59  70 NW9       29.76F
PHILADELPHIA   MOCLDY    71  59  65 NW12      29.76S
$$


USA.gov is the U.S. government's official web portal to all federal, state and local government web resources and services.